Time,TemperatureF,DewpointF,PressureIn,WindDirection,WindDirectionDegrees,WindSpeedMPH,WindSpeedGustMPH,Humidity,HourlyPrecipIn,Conditions,Clouds,dailyrainin,SoftwareType,DateUTC
2013-06-24 00:13:00,65.6,64.0,30.17,SE,124,0.0,0.0,94,0.00,,,0.00,weatherlink.com 1.10,2013-06-24 04:13:00,
2013-06-24 00:28:00,65.6,64.0,30.17,SE,124,0.0,0.0,94,0.00,,,0.00,weatherlink.com 1.10,2013-06-24 04:28:00,
2013-06-24 00:43:00,65.4,64.0,30.17,SE,125,1.0,1.0,94,0.00,,,0.00,weatherlink.com 1.10,2013-06-24 04:43:00,
2013-06-24 00:58:00,65.1,64.0,30.18,SE,126,0.0,0.0,95,0.00,,,0.00,weatherlink.com 1.10,2013-06-24 04:58:00,
2013-06-24 01:13:00,65.2,64.0,30.17,SE,124,1.0,1.0,95,0.00,,,0.00,weatherlink.com 1.10,2013-06-24 05:13:00,
2013-06-24 01:28:00,65.1,64.0,30.17,SE,124,0.0,0.0,95,0.00,,,0.00,weatherlink.com 1.10,2013-06-24 05:28:00,
2013-06-24 01:43:00,64.8,63.0,30.17,SE,124,0.0,0.0,95,0.00,,,0.00,weatherlink.com 1.10,2013-06-24 05:43:00,
2013-06-24 01:58:00,64.4,63.0,30.17,SE,124,0.0,1.0,96,0.00,,,0.00,weatherlink.com 1.10,2013-06-24 05:58:00,
2013-06-24 02:13:00,64.2,63.0,30.16,SE,124,0.0,0.0,96,0.00,,,0.00,weatherlink.com 1.10,2013-06-24 06:13:00,
2013-06-24 02:28:00,64.0,63.0,30.16,SE,124,0.0,1.0,97,0.00,,,0.00,weatherlink.com 1.10,2013-06-24 06:28:00,
2013-06-24 02:43:00,63.8,63.0,30.16,SE,124,0.0,1.0,97,0.00,,,0.00,weatherlink.com 1.10,2013-06-24 06:43:00,
2013-06-24 02:58:00,63.3,63.0,30.16,SE,124,0.0,0.0,97,0.00,,,0.00,weatherlink.com 1.10,2013-06-24 06:58:00,
2013-06-24 03:13:00,63.1,62.0,30.16,SE,124,0.0,0.0,97,0.00,,,0.00,weatherlink.com 1.10,2013-06-24 07:13:00,
2013-06-24 03:28:00,63.1,63.0,30.16,SSE,150,0.0,1.0,98,0.00,,,0.00,weatherlink.com 1.10,2013-06-24 07:28:00,
2013-06-24 03:43:00,63.2,63.0,30.16,SSE,150,0.0,0.0,98,0.00,,,0.00,weatherlink.com 1.10,2013-06-24 07:43:00,
2013-06-24 03:58:00,62.9,62.0,30.16,SSE,151,0.0,1.0,98,0.00,,,0.00,weatherlink.com 1.10,2013-06-24 07:58:00,
2013-06-24 04:13:00,62.8,62.0,30.16,SSE,150,0.0,1.0,98,0.00,,,0.00,weatherlink.com 1.10,2013-06-24 08:13:00,
2013-06-24 04:28:00,62.6,62.0,30.16,SSE,149,0.0,0.0,98,0.00,,,0.00,weatherlink.com 1.10,2013-06-24 08:28:00,
2013-06-24 04:43:00,62.3,62.0,30.16,SSE,150,0.0,1.0,98,0.00,,,0.00,weatherlink.com 1.10,2013-06-24 08:43:00,
2013-06-24 04:58:00,62.0,62.0,30.16,SSE,150,0.0,0.0,98,0.00,,,0.00,weatherlink.com 1.10,2013-06-24 08:58:00,
2013-06-24 05:13:00,61.9,61.0,30.16,SSE,150,0.0,0.0,98,0.00,,,0.00,weatherlink.com 1.10,2013-06-24 09:13:00,
2013-06-24 05:28:00,61.8,61.0,30.16,SSE,149,0.0,0.0,98,0.00,,,0.00,weatherlink.com 1.10,2013-06-24 09:28:00,
2013-06-24 05:43:00,61.7,61.0,30.16,SSE,150,0.0,0.0,98,0.00,,,0.00,weatherlink.com 1.10,2013-06-24 09:43:00,
2013-06-24 05:58:00,61.8,61.0,30.17,SE,132,0.0,1.0,98,0.00,,,0.00,weatherlink.com 1.10,2013-06-24 09:58:00,
2013-06-24 06:28:00,61.5,61.0,30.17,SE,132,0.0,0.0,98,0.00,,,0.00,weatherlink.com 1.10,2013-06-24 10:28:00,
2013-06-24 06:43:00,61.3,61.0,30.17,SE,132,0.0,0.0,98,0.00,,,0.00,weatherlink.com 1.10,2013-06-24 10:43:00,
2013-06-24 06:58:00,61.3,61.0,30.18,SE,133,0.0,0.0,99,0.00,,,0.00,weatherlink.com 1.10,2013-06-24 10:58:00,
2013-06-24 07:28:00,62.8,63.0,30.19,SE,132,0.0,1.0,99,0.00,,,0.00,weatherlink.com 1.10,2013-06-24 11:28:00,
2013-06-24 07:43:00,63.7,64.0,30.19,SE,132,0.0,1.0,99,0.00,,,0.00,weatherlink.com 1.10,2013-06-24 11:43:00,
2013-06-24 08:14:00,64.9,64.0,30.20,SSE,155,0.0,1.0,98,0.00,,,0.00,weatherlink.com 1.10,2013-06-24 12:14:00,
2013-06-24 08:29:00,65.9,65.0,30.20,SSE,150,0.0,1.0,97,0.00,,,0.00,weatherlink.com 1.10,2013-06-24 12:29:00,
2013-06-24 09:14:00,70.3,67.0,30.21,SE,126,2.0,2.0,90,0.00,,,0.00,weatherlink.com 1.10,2013-06-24 13:14:00,
2013-06-24 09:44:00,73.2,67.0,30.21,SSE,158,3.0,5.0,82,0.00,,,0.00,weatherlink.com 1.10,2013-06-24 13:44:00,
2013-06-24 09:59:00,75.0,68.0,30.21,SE,136,4.0,6.0,80,0.00,,,0.00,weatherlink.com 1.10,2013-06-24 13:59:00,
2013-06-24 10:14:00,76.0,69.0,30.21,South,181,4.0,7.0,78,0.00,,,0.00,weatherlink.com 1.10,2013-06-24 14:14:00,
2013-06-24 10:29:00,78.2,69.0,30.20,SE,131,2.0,5.0,74,0.00,,,0.00,weatherlink.com 1.10,2013-06-24 14:29:00,
2013-06-24 10:44:00,79.3,70.0,30.20,SSW,201,1.0,6.0,73,0.00,,,0.00,weatherlink.com 1.10,2013-06-24 14:44:00,
2013-06-24 10:59:00,80.1,71.0,30.20,NE,53,1.0,5.0,73,0.00,,,0.00,weatherlink.com 1.10,2013-06-24 14:59:00,
2013-06-24 11:14:00,79.4,69.0,30.20,ENE,72,0.0,5.0,70,0.00,,,0.00,weatherlink.com 1.10,2013-06-24 15:14:00,
2013-06-24 11:29:00,78.3,70.0,30.20,SW,235,0.0,3.0,75,0.00,,,0.00,weatherlink.com 1.10,2013-06-24 15:29:00,
2013-06-24 12:14:00,76.9,70.0,30.18,SE,143,3.0,5.0,79,0.00,,,0.00,weatherlink.com 1.10,2013-06-24 16:14:00,
2013-06-24 12:44:00,77.0,71.0,30.18,ESE,118,2.0,9.0,81,0.00,,,0.00,weatherlink.com 1.10,2013-06-24 16:44:00,
2013-06-24 13:14:00,75.0,71.0,30.18,ESE,117,1.0,3.0,87,0.10,,,0.10,weatherlink.com 1.10,2013-06-24 17:14:00,
2013-06-24 13:31:00,71.5,66.0,30.17,ENE,57,1.0,6.0,82,0.10,,,0.10,weatherlink.com 1.10,2013-06-24 17:31:00,
2013-06-24 13:45:00,72.1,69.0,30.17,NNW,340,2.0,4.0,89,0.10,,,0.10,weatherlink.com 1.10,2013-06-24 17:45:00,
2013-06-24 14:00:00,75.6,68.0,30.16,East,96,0.0,4.0,78,0.05,,,0.10,weatherlink.com 1.10,2013-06-24 18:00:00,
2013-06-24 14:15:00,77.0,70.0,30.15,NNW,336,2.0,5.0,79,0.00,,,0.10,weatherlink.com 1.10,2013-06-24 18:15:00,
2013-06-24 14:30:00,77.1,70.0,30.14,South,173,1.0,4.0,79,0.00,,,0.10,weatherlink.com 1.10,2013-06-24 18:30:00,
2013-06-24 14:45:00,77.6,69.0,30.14,WSW,240,0.0,1.0,74,0.00,,,0.10,weatherlink.com 1.10,2013-06-24 18:45:00,
2013-06-24 15:00:00,77.9,69.0,30.14,SSW,207,1.0,4.0,75,0.00,,,0.10,weatherlink.com 1.10,2013-06-24 19:00:00,
2013-06-24 15:15:00,76.3,69.0,30.13,South,170,1.0,4.0,77,0.00,,,0.10,weatherlink.com 1.10,2013-06-24 19:15:00,
2013-06-24 15:30:00,77.7,69.0,30.12,South,179,2.0,5.0,74,0.00,,,0.10,weatherlink.com 1.10,2013-06-24 19:30:00,
2013-06-24 15:45:00,78.9,68.0,30.12,SW,225,2.0,4.0,70,0.00,,,0.10,weatherlink.com 1.10,2013-06-24 19:45:00,
2013-06-24 15:59:00,80.1,69.0,30.12,SW,221,2.0,4.0,69,0.00,,,0.10,weatherlink.com 1.10,2013-06-24 19:59:00,
2013-06-24 16:15:00,79.2,71.0,30.12,SW,217,2.0,6.0,76,0.00,,,0.10,weatherlink.com 1.10,2013-06-24 20:15:00,
2013-06-24 17:00:00,79.3,70.0,30.10,SSE,160,1.0,4.0,73,0.00,,,0.10,weatherlink.com 1.10,2013-06-24 21:00:00,
2013-06-24 17:15:00,79.8,71.0,30.10,SSW,204,0.0,4.0,74,0.00,,,0.10,weatherlink.com 1.10,2013-06-24 21:15:00,
2013-06-24 17:30:00,79.0,71.0,30.10,SW,229,0.0,0.0,77,0.00,,,0.10,weatherlink.com 1.10,2013-06-24 21:30:00,
2013-06-24 17:45:00,76.1,68.0,30.12,SE,146,0.0,13.0,76,0.00,,,0.10,weatherlink.com 1.10,2013-06-24 21:45:00,
2013-06-24 18:01:00,71.5,68.0,30.13,SSE,150,0.0,6.0,87,0.24,,,0.34,weatherlink.com 1.10,2013-06-24 22:01:00,
2013-06-24 18:15:00,70.3,68.0,30.12,SE,129,0.0,1.0,93,0.26,,,0.36,weatherlink.com 1.10,2013-06-24 22:15:00,
2013-06-24 18:31:00,70.3,69.0,30.12,SSW,212,0.0,1.0,94,0.26,,,0.36,weatherlink.com 1.10,2013-06-24 22:31:00,
2013-06-24 18:45:00,70.6,69.0,30.12,SSW,212,0.0,0.0,94,0.26,,,0.36,weatherlink.com 1.10,2013-06-24 22:45:00,
2013-06-24 19:01:00,71.4,70.0,30.12,SW,217,0.0,1.0,94,0.02,,,0.36,weatherlink.com 1.10,2013-06-24 23:01:00,
2013-06-24 19:15:00,71.9,69.0,30.11,SE,136,1.0,2.0,91,0.00,,,0.36,weatherlink.com 1.10,2013-06-24 23:15:00,
2013-06-24 19:31:00,71.4,68.0,30.11,SSE,153,0.0,1.0,90,0.00,,,0.36,weatherlink.com 1.10,2013-06-24 23:31:00,
2013-06-24 19:45:00,70.9,69.0,30.10,SSE,153,0.0,0.0,93,0.00,,,0.36,weatherlink.com 1.10,2013-06-24 23:45:00,
2013-06-24 20:01:00,69.9,68.0,30.10,SSE,160,0.0,0.0,94,0.00,,,0.36,weatherlink.com 1.10,2013-06-25 00:01:00,
2013-06-24 20:31:00,68.7,68.0,30.09,SSE,155,0.0,0.0,96,0.00,,,0.36,weatherlink.com 1.10,2013-06-25 00:31:00,
2013-06-24 20:45:00,68.1,67.0,30.10,SSE,155,0.0,0.0,96,0.00,,,0.36,weatherlink.com 1.10,2013-06-25 00:45:00,
2013-06-24 21:15:00,67.3,67.0,30.11,SSE,155,0.0,0.0,97,0.00,,,0.36,weatherlink.com 1.10,2013-06-25 01:15:00,
2013-06-24 21:30:00,67.1,67.0,30.11,SSE,155,0.0,0.0,98,0.00,,,0.36,weatherlink.com 1.10,2013-06-25 01:30:00,
2013-06-24 22:45:00,66.3,66.0,30.15,SSE,162,0.0,1.0,98,0.00,,,0.36,weatherlink.com 1.10,2013-06-25 02:45:00,
2013-06-24 23:30:00,65.9,65.0,30.15,SSE,162,0.0,0.0,98,0.00,,,0.36,weatherlink.com 1.10,2013-06-25 03:30:00,
2013-06-24 23:45:00,66.0,66.0,30.15,SSE,164,0.0,0.0,99,0.00,,,0.36,weatherlink.com 1.10,2013-06-25 03:45:00,